Notices

What's New in latest Release from April 7th, 2021:

- Updated Glossary, including Speed of Maximum Gust, and Total Hourly Precipitation

- Updated national and regional climate services offices contacts and prices information

- Addition of station inventory lists for 1981-2010, 1971-2000, and 1961-1990 Normals.

If you haven't already, please take our survey and provide feedback about our website: https://eccc.sondage-survey.ca/f/LanguageSelection.aspx?s=442ca660-fcf1-47c0-95a9-59707d6fd709

Hourly Data Report for January 16, 2017

TORONTO CITY
ONTARIO

43°40'00.000" N
79°24'00.000" W
112.50 m
6158355
71508
XTO

Download Data

Hourly Data (January 2017)
Hourly Data Report for January 16, 2017
TIME
LST
Temp Definition
°C
Dew Point Definition
°C
Rel Hum Definition
%
Precip. Amount Definition
mm

Wind Dir Definition
10's deg

Wind Spd Definition
km/h
Visibility Definition
km
Stn Press Definition
kPa
Hmdx Definition


Wind Chill Definition


Weather Definition


00:00 -2.4 -5.6 79 0.0 LegendMM LegendMM   101.40     LegendNANA
01:00 -2.7 -5.9 78 0.0 LegendMM LegendMM   101.37     LegendNANA
02:00 -2.9 -5.9 80 0.0 LegendMM LegendMM   101.37     LegendNANA
03:00 -2.9 -6.0 79 0.0 LegendMM LegendMM   101.38     LegendNANA
04:00 -2.5 -5.8 78 0.0 LegendMM LegendMM   101.37     LegendNANA
05:00 -3.3 -6.1 81 0.0 LegendMM LegendMM   101.32     LegendNANA
06:00 -3.4 -6.3 80 0.0 LegendMM LegendMM   101.34     LegendNANA
07:00 -3.5 -6.3 81 0.0 LegendMM LegendMM   101.35     LegendNANA
08:00 -3.7 -6.5 81 0.0 LegendMM LegendMM   101.35     LegendNANA
09:00 -2.5 -5.9 77 0.0 LegendMM LegendMM   101.37     LegendNANA
10:00 -0.9 -5.2 73 0.0 LegendMM LegendMM   101.37     LegendNANA
11:00 0.4 -4.6 69 0.0 LegendMM LegendMM   101.37     LegendNANA
12:00 2.2 -5.0 59 0.0 LegendMM LegendMM   101.28     LegendNANA
13:00 3.0 -5.3 55 0.0 LegendMM LegendMM   101.20     LegendNANA
14:00 3.5 -5.8 51 0.0 LegendMM LegendMM   101.13     LegendNANA
15:00 3.6 -6.3 49 0.0 LegendMM LegendMM   101.08     LegendNANA
16:00 2.8 -5.4 55 0.0 LegendMM LegendMM   101.09     LegendNANA
17:00 2.2 -5.1 59 0.0 LegendMM LegendMM   101.09     LegendNANA
18:00 1.8 -5.5 59 0.0 LegendMM LegendMM   101.10     LegendNANA
19:00 1.8 -4.8 61 0.0 LegendMM LegendMM   101.07     LegendNANA
20:00 2.2 -4.1 63 0.0 LegendMM LegendMM   101.05     LegendNANA
21:00 2.1 -5.0 59 0.0 LegendMM LegendMM   101.03     LegendNANA
22:00 1.7 -5.2 60 0.0 LegendMM LegendMM   101.00     LegendNANA
23:00 2.3 -5.6 56 0.0 LegendMM LegendMM   100.96     LegendNANA

Notes on Data Quality.

Legend

  • E = Estimated
  • M = Missing
  • NA = Not Available*
  • [empty] = Indicates an unobserved value
Date modified: